Location: Oshawa
(43.9000°N, 78.8670°W)
Time: 20:17:49
(UTC-04:00)

Daily predictions for brighter satellites

Satellite Brightness Start Highest point End
(mag) Time Altitude Azimuth Time Altitude Azimuth Time Altitude Azimuth
BREEZE-M DEB (TANK) 3.5 19:21:57 10° WNW 19:24:55 47° N 19:33:10 10° ENE
Cosmos 1943 Rocket 3.1 19:28:48 10° NNW 19:34:15 55° WSW 19:39:43 10° S
Cosmos 1340 Rocket 3.0 19:30:25 10° NNW 19:34:30 83° W 19:38:35 10° S
ATLAS CENTAUR R/B 3.9 19:21:30 10° NW 19:39:06 85° NE 19:44:36 10° SE
Cosmos 304 Rocket 3.8 19:38:29 10° S 19:43:09 56° ESE 19:47:52 10° NNE
COSMO-SKYMED 1 3.3 19:44:10 10° N 19:48:27 59° WNW 19:52:43 10° SSW
Meteor 1-24 Rocket 4.0 19:44:24 10° N 19:50:16 54° ENE 19:55:55 10° SSE
BREEZE M DEB (TANK) 3.4 19:42:41 10° WSW 19:51:45 59° NNW 19:54:45 10° ENE
Thor Agena Rocket 3.6 19:47:10 10° NNE 19:52:24 65° ESE 19:57:32 10° S
Cosmos 1758 Rocket 4.3 19:49:15 10° NNW 19:53:41 60° W 19:58:06 10° S
ISS -2.2 19:54:02 10° S 19:56:20 18° SE 19:57:34 15° ESE
Cosmos 2084 3.7 19:52:38 10° SW 19:56:40 62° NW 20:00:31 10° NNE
Cosmos 1726 Rocket 4.1 19:54:22 10° SSW 19:58:40 62° W 20:02:59 10° N
USA 234 4.4 19:53:40 10° SSE 19:59:49 43° SW 20:06:01 10° WNW
ALOS 2.7 19:57:59 10° S 20:02:38 69° W 20:07:18 10° NNW
Cosmos 2181 Rocket 4.4 19:56:44 10° NNW 20:02:52 66° W 20:08:55 10° S
BREEZE M DEB (TANK) 3.4 19:55:00 10° WNW 20:03:45 82° SSW 20:06:19 15° ESE
SJ 16-02 2.1 20:02:14 10° N 20:06:14 33° ENE 20:09:12 16° ESE
Cosmos 1656 Rocket 4.0 20:00:55 10° NNW 20:06:33 69° WSW 20:12:03 10° SSE
SJ-6B 2.8 20:04:40 10° SSE 20:08:38 66° ENE 20:12:31 10° N
FENGYUN 3A 4.1 20:06:02 10° S 20:11:20 64° W 20:16:41 10° NNW
Cosmos 1953 3.5 20:11:47 18° ESE 20:13:11 22° E 20:16:20 10° NE
H-2A R/B 2.6 20:10:03 10° SSE 20:13:46 86° E 20:17:34 10° NNW
Cosmos 2154 Rocket 4.3 20:09:02 10° SSE 20:14:48 42° E 20:20:38 10° NNE
Resurs 1-3 4.3 20:11:58 15° SE 20:15:04 35° ENE 20:19:04 10° N
Cosmos 2074 Rocket 3.9 20:09:26 10° S 20:15:37 80° E 20:21:51 10° N
Cosmos 372 Rocket 4.1 20:10:41 10° NNW 20:15:53 59° ENE 20:20:59 10° SE
Cosmos 1125 Rocket 3.5 20:10:48 10° NNW 20:16:05 67° ENE 20:21:23 10° SSE
FREGAT/IRIS 3.5 20:17:15 10° S 20:20:13 52° W 20:23:11 10° NNW
Cosmos 2228 3.9 20:16:30 10° SSW 20:20:46 54° W 20:25:02 10° N
Cosmos 1356 3.7 20:18:24 10° N 20:21:47 45° ENE 20:23:36 23° SE
Cosmos 1356 Rocket 4.0 20:17:35 10° NNW 20:21:52 63° W 20:26:07 10° S
Envisat 3.5 20:21:01 17° SE 20:24:30 40° ENE 20:29:14 10° N
Cosmos 1544 2.9 20:22:42 10° S 20:26:17 80° E 20:29:55 10° N
Cosmos 2341 Rocket 4.4 20:22:51 10° SSE 20:28:28 38° E 20:34:07 10° NNE
ATLAS 2AS CENTAUR R/B 3.7 20:24:35 10° NNW 20:32:06 40° NE 20:36:22 23° E
COSMOS 2406 3.3 20:28:28 10° SSW 20:34:10 83° WNW 20:39:58 10° NNE
Meteor 1-22 Rocket 4.3 20:29:09 10° SSW 20:34:50 78° W 20:40:19 10° N
Cosmos 1766 3.8 20:34:09 10° SSW 20:38:01 61° W 20:41:55 10° N
Meteor 2-8 Rocket 4.4 20:32:13 10° N 20:38:23 88° W 20:44:28 10° S
Cosmos 1812 Rocket 3.5 20:34:31 10° S 20:38:58 76° E 20:43:27 10° NNE
In-Cosmos 22 4.5 20:33:43 10° NNW 20:39:25 74° W 20:45:09 10° S
Resurs 01 Rocket 1.5 20:38:07 19° SSE 20:41:12 70° ENE 20:45:36 10° N
Cosmos 1674 2.8 20:37:56 10° N 20:41:33 46° ENE 20:41:52 45° E
GP-B 3.0 20:37:19 10° N 20:41:45 65° E 20:46:08 10° S
Nadezhda 3 Rocket 3.9 20:37:14 10° N 20:43:34 72° E 20:49:46 10° SSE
Cosmos 2369 4.1 20:39:27 10° NNW 20:44:50 42° ENE 20:46:39 33° E
MOS 1-B Rocket 3.8 20:40:08 13° SSE 20:45:33 68° ENE 20:51:09 10° N
SL-27 R/B 2.3 20:48:01 10° SSW 20:51:37 80° ESE 20:55:17 10° NNE
Meteor 2-19 Rocket 4.4 20:46:09 10° S 20:52:12 90° WNW 20:58:18 10° N
Cosmos 540 Rocket 3.9 20:48:39 10° SSW 20:53:42 63° WNW 20:58:47 10° NNE
Meteor 1-21 Rocket 4.2 20:48:20 10° N 20:54:04 66° ENE 20:57:04 28° SSE
Cosmos 2285 Rocket 4.3 20:49:55 10° S 20:55:54 44° ESE 21:01:57 10° NNE
Elektron 1 4.1 20:54:12 10° NW 20:57:21 56° SW 20:57:32 55° SW
Cosmos 1758 3.2 20:53:51 10° S 20:57:52 86° ESE 21:01:53 10° N
Helios 1A 4.4 21:00:23 24° NE 21:00:23 24° NE 21:02:43 10° N
USA 186 3.9 21:02:04 15° NNW 21:02:04 15° NNW 21:02:35 10° NNW
Cosmos 1295 Rocket 4.3 20:58:53 10° S 21:04:53 63° E 21:10:54 10° NNE
Cosmos 1809 Rocket 4.5 21:03:38 28° SSE 21:06:47 55° E 21:12:44 10° NNE
Okean 3 Rocket 3.4 21:03:09 10° N 21:07:38 75° E 21:08:05 67° SE
Cosmos 1805 4.4 21:06:09 10° SSW 21:09:53 44° WNW 21:13:39 10° N
Cosmos 1939 Rocket 2.9 21:13:42 64° N 21:13:42 64° N 21:17:08 10° N
SL-8 Rocket 3.9 21:14:55 47° SE 21:16:11 56° E 21:22:13 10° NNE
Cosmos 292 Rocket 3.8 21:12:39 10° SSW 21:17:30 79° WNW 21:22:24 10° NNE
Cosmos 2278 3.6 21:13:28 10° NNW 21:19:10 74° ENE 21:20:04 61° ESE
Meteor 2-15 4.3 21:15:30 10° N 21:21:34 70° E 21:22:45 56° SE
KORONAS-FOTON 4.4 21:18:55 10° NNW 21:21:50 51° NNW 21:21:50 51° NNW
Meteor 2-14 Rocket 4.4 21:27:37 59° E 21:27:37 59° E 21:33:29 10° NNE
Cosmos 1470 4.5 21:31:43 26° N 21:31:43 26° N 21:33:33 10° N
Cosmos 2322 Rocket 4.2 21:27:10 10° N 21:29:40 14° NE 21:29:40 14° NE
Spot 2 Rocket 4.3 21:28:03 23° SSW 21:30:55 47° W 21:35:47 10° NNW
ISS -1.3 21:29:15 10° WSW 21:30:17 19° WSW 21:30:17 19° WSW
Milstar 3 Cent rocket 4.2 21:30:13 10° SSW 21:30:39 11° SSW 21:30:39 11° SSW
Meteor 2-21 Rocket 4.3 21:33:19 68° ESE 21:33:34 68° E 21:39:40 10° NNE
Cosmos 1656 3.5 21:29:57 10° NNW 21:35:40 82° ENE 21:35:48 81° E
Cosmos 1697 Rocket 2.8 21:33:22 10° NNW 21:38:32 59° NE 21:38:32 59° NE
Cosmos 1980 Rocket 3.1 21:35:34 10° NNW 21:39:51 36° NNE 21:39:51 36° NNE
Cosmos 1076 Rocket 4.3 21:39:22 10° NNW 21:43:06 50° WNW 21:43:06 50° WNW
SJ 16-02 3.4 21:41:08 10° NW 21:44:39 24° W 21:46:14 19° SW
Cosmos 1953 4.2 21:47:21 19° WSW 21:49:27 29° WNW 21:53:02 10° NNW
ERS-1 Rocket 3.9 21:52:11 39° N 21:52:11 39° N 21:55:26 10° N
Cosmos 1818 4.4 21:51:31 10° NNW 21:55:33 42° N 21:55:33 42° N
ARGOS 4.1 22:05:24 41° N 22:05:24 41° N 22:08:55 10° N
SL-16 R/B 4.0 22:04:21 10° N 22:07:07 21° NNE 22:07:07 21° NNE
Terra 4.4 22:12:50 11° NNE 22:12:50 11° NNE 22:13:05 10° NNE
FALCON 9 R/B 4.2 22:14:26 10° WSW 22:15:43 19° SW 22:15:43 19° SW
ATLAS 2AS CENTAUR R/B 3.1 22:15:45 10° NW 22:23:37 63° WSW 22:23:48 63° SW
H-2A R/B 3.9 22:28:14 24° N 22:28:14 24° N 22:30:15 10° N
NOSS 3-4 (A) 4.4 22:28:59 10° NNW 22:34:23 46° NNE 22:34:23 46° NNE
NOSS 3-4 (C) 4.4 22:29:04 10° NNW 22:34:29 46° NNE 22:34:29 46° NNE
USA 267 4.4 22:48:02 34° NNE 22:48:02 34° NNE 22:53:40 10° NW
Cosmos 2082 Rocket 4.3 23:01:05 20° N 23:01:05 20° N 23:03:06 10° N
Cosmos 2322 Rocket 4.3 23:09:39 10° NNW 23:11:28 21° NNW 23:11:28 21° NNW
Cosmos 1980 Rocket 4.5 23:19:46 10° NW 23:21:38 19° NW 23:21:38 19° NW
